EW4694 Weather Reports


Display with metric or nautical units.
time (UTC)temp
F
wind
direction
speed
MPH
gust
MPH
rain 1hr
in
rain 24hr
in
rain mn
in
humidity
%
barometer
mb
20260505223021 73 282 0.0 0.0 0.00 0.00 0.00 45 1008.7
20260505221518 73 282 0.0 0.0 0.00 0.00 0.00 46 1009.0
20260505220056 74 271 0.0 0.0 0.00 0.00 0.00 43 1009.2
20260505214552 74 284 0.0 7.0 0.00 0.00 0.00 43 1009.4
20260505213031 74 265 0.0 8.0 0.00 0.00 0.00 42 1009.6
20260505211527 74 281 0.0 1.0 0.00 0.00 0.00 42 1009.5
20260505210006 75 314 0.0 8.0 0.00 0.00 0.00 44 1009.4
20260505204501 75 289 0.0 1.0 0.00 0.00 0.00 45 1009.3
20260505203040 75 265 0.0 0.0 0.00 0.00 0.00 43 1009.3
20260505201537 75 224 0.0 9.0 0.00 0.00 0.00 43 1009.4
20260505200019 75 284 0.0 5.0 0.00 0.00 0.00 45 1009.6
20260505194514 75 276 0.0 1.0 0.00 0.00 0.00 44 1009.6
20260505193052 75 245 1.0 12.0 0.00 0.00 0.00 41 1009.6
20260505191608 75 229 0.0 7.0 0.00 0.00 0.00 43 1009.8
20260505190026 75 281 0.0 7.0 0.00 0.00 0.00 44 1009.8
20260505184521 75 291 0.0 10.0 0.00 0.00 0.00 42 1009.8
20260505183101 75 275 1.0 17.0 0.00 0.00 0.00 42 1010.0
20260505181556 76 272 2.0 23.0 0.00 0.00 0.00 41 1009.7
20260505180045 76 160 0.0 0.0 0.00 0.00 0.00 46 1009.8
20260505174535 76 246 0.0 21.0 0.00 0.00 0.00 44 1009.9
20260505173008 76 277 0.0 4.0 0.00 0.00 0.00 44 1010.2
20260505171503 75 293 0.0 8.0 0.00 0.00 0.00 46 1010.2
20260505170041 75 267 0.0 8.0 0.00 0.00 0.00 47 1010.4
20260505164541 75 273 0.0 15.0 0.00 0.00 0.00 45 1010.7
20260505163014 75 272 0.0 9.0 0.00 0.00 0.00 46 1010.7
20260505161511 75 258 0.0 7.0 0.00 0.00 0.00 48 1010.7
20260505153025 72 273 0.0 10.0 0.00 0.00 0.00 49 1011.3
20260505151525 72 263 0.0 13.0 0.00 0.00 0.00 50 1011.4
20260505124516 69 271 0.0 3.0 0.00 0.00 0.00 54 1011.7
20260505123102 68 242 0.0 6.0 0.00 0.00 0.00 56 1011.7
20260505121555 67 214 0.0 0.0 0.00 0.00 0.00 57 1012.1
20260505120053 66 304 0.0 0.0 0.00 0.00 0.00 59 1012.0
20260505114546 65 176 0.0 0.0 0.00 0.00 0.00 61 1011.9
20260505113049 63 145 0.0 0.0 0.00 0.00 0.00 64 1012.0
20260505111538 61 243 0.0 0.0 0.00 0.00 0.00 65 1011.9
20260505101507 0 0.0 0.0 0.00 0.00 0.00 1011.4
20260505100058 0 0.0 0.0 0.00 0.00 0.00 1011.1
20260505094536 0 0.0 0.0 0.00 0.00 0.00 1011.0
20260505093024 51 232 0.0 0.0 0.00 0.00 0.00 9 1010.9
20260505091519 50 234 0.0 0.0 0.00 0.00 0.00 7 1010.8
20260505090012 50 234 0.0 0.0 0.00 0.00 0.00 5 1010.7
20260505084508 50 233 0.0 0.0 0.00 0.00 0.00 1 1010.7
20260505083005 50 159 0.0 0.0 0.00 0.00 0.00 1 1010.7
20260505081624 50 158 0.0 0.0 0.00 0.00 0.00 1 1010.5
20260505074551 51 158 0.0 0.0 0.00 0.00 0.00 1 1010.1
20260505073048 51 159 0.0 0.0 0.00 0.00 0.00 1 1010.1
20260505071525 52 159 0.0 0.0 0.00 0.00 0.00 2 1010.0
20260505070021 52 161 0.0 0.0 0.00 0.00 0.00 1 1010.0
20260505064559 52 163 0.0 0.0 0.00 0.00 0.00 2 1010.2
20260505063109 52 165 0.0 0.0 0.00 0.00 0.00 1 1010.3
20260505061538 52 165 0.0 0.0 0.00 0.00 0.00 1 1010.3
20260505060029 52 166 0.0 0.0 0.00 0.00 0.00 1 1010.4
20260505054508 51 167 0.0 0.0 0.00 0.00 0.00 1 1010.4
20260505053004 50 176 0.0 0.0 0.00 0.00 0.00 1 1010.3
20260505051548 49 180 0.0 0.0 0.00 0.00 0.00 1 1010.3
20260505041531 50 180 0.0 0.0 0.00 0.00 0.00 4 1010.1
20260505040028 51 180 0.0 0.0 0.00 0.00 0.00 7 1010.0
20260505034522 51 180 0.0 0.0 0.00 0.00 0.00 5 1010.0
20260505033018 51 180 0.0 0.0 0.00 0.00 0.00 1 1010.0
20260505031556 51 180 0.0 0.0 0.00 0.00 0.00 1 1010.1
20260505030052 51 180 0.0 0.0 0.00 0.00 0.00 10 1010.1
20260505024532 51 180 0.0 0.0 0.00 0.00 0.00 17 1010.0
20260505023030 52 180 0.0 0.0 0.00 0.00 0.00 25 1010.0
20260505021512 53 180 0.0 0.0 0.00 0.00 0.00 32 1010.0
20260505020009 54 184 0.0 0.0 0.00 0.00 0.00 37 1010.1
20260505014557 55 189 0.0 0.0 0.00 0.00 0.00 43 1010.1
20260505013053 56 222 0.0 0.0 0.00 0.00 0.00 49 1010.0
20260505011543 58 225 0.0 0.0 0.00 0.00 0.00 60 1010.0
20260505004539 63 228 0.0 0.0 0.00 0.00 0.00 65 1010.0
20260505003043 66 228 0.0 0.0 0.00 0.00 0.00 60 1010.0
20260505001539 67 228 0.0 0.0 0.00 0.00 0.00 58 1010.1
20260505000045 69 236 0.0 0.0 0.00 0.00 0.00 53 1010.0
20260504234536 70 275 0.0 0.0 0.00 0.00 0.00 51 1010.0
20260504233035 71 275 0.0 0.0 0.00 0.00 0.00 50 1009.9
20260504231517 71 276 0.0 0.0 0.00 0.00 0.00 48 1009.7
20260504230025 71 271 0.0 0.0 0.00 0.00 0.00 49 1009.6
20260504224601 72 261 0.0 1.0 0.00 0.00 0.00 48 1009.5